DLH5TP EDDF-EDDL

Flight info

Callsign DLH5TP
Flight time 0h 33m
Altitude 24000
Route MARUN3W/25C MARUN Y152 ARPEG Z850 ADEMI T854 DOMUX DOMUX1A
Aircraft A320/M-SDE2E3FGIJ1LORWXYZ/HB1

Departure

Time 2026-05-06 18:47
Airport Frankfurt Main Airport (EDDF)

Arrival

Time 2026-05-06 19:21
Airport Düsseldorf Airport (EDDL)
Time Latitude Longitude Altitude Speed Heading
2026-05-06 18:14 50.04403 8.56222 362 ft 0 kts 159°
2026-05-06 18:34 50.04413 8.56216 343 ft 3 kts 161°
2026-05-06 18:34 50.04435 8.56205 363 ft 3 kts 168°
2026-05-06 18:34 50.04457 8.56201 360 ft 3 kts 189°
2026-05-06 18:34 50.04475 8.56212 361 ft 3 kts 243°
2026-05-06 18:35 50.04472 8.56200 357 ft 3 kts 250°
2026-05-06 18:35 50.04465 8.56166 359 ft 3 kts 250°
2026-05-06 18:35 50.04457 8.56133 359 ft 3 kts 250°
2026-05-06 18:35 50.04453 8.56118 363 ft 0 kts 249°
2026-05-06 18:37 50.04452 8.56111 363 ft 3 kts 250°
2026-05-06 18:38 50.04435 8.56056 361 ft 8 kts 234°
2026-05-06 18:38 50.04390 8.56031 356 ft 5 kts 172°
2026-05-06 18:38 50.04344 8.56054 362 ft 9 kts 159°
2026-05-06 18:38 50.04293 8.56114 359 ft 8 kts 115°
2026-05-06 18:39 50.04286 8.56192 355 ft 9 kts 114°
2026-05-06 18:39 50.04237 8.56242 360 ft 7 kts 160°
2026-05-06 18:39 50.04198 8.56264 355 ft 3 kts 160°
2026-05-06 18:40 50.04146 8.56321 361 ft 8 kts 111°
2026-05-06 18:40 50.04161 8.56423 358 ft 14 kts 69°
2026-05-06 18:40 50.04203 8.56597 363 ft 20 kts 70°
2026-05-06 18:40 50.04252 8.56801 359 ft 21 kts 70°
2026-05-06 18:41 50.04304 8.57020 362 ft 22 kts 68°
2026-05-06 18:41 50.04359 8.57250 364 ft 23 kts 69°
2026-05-06 18:41 50.04407 8.57453 361 ft 10 kts 69°
2026-05-06 18:41 50.04413 8.57479 365 ft 0 kts 70°
2026-05-06 18:43 50.04422 8.57516 363 ft 7 kts 70°
2026-05-06 18:43 50.04425 8.57596 367 ft 5 kts 106°
2026-05-06 18:43 50.04400 8.57647 366 ft 8 kts 142°
2026-05-06 18:44 50.04377 8.57663 369 ft 0 kts 161°
2026-05-06 18:45 50.04369 8.57667 364 ft 6 kts 161°
2026-05-06 18:45 50.04299 8.57703 366 ft 8 kts 166°
2026-05-06 18:45 50.04267 8.57666 362 ft 5 kts 244°
2026-05-06 18:46 50.04265 8.57659 362 ft 0 kts 247°
2026-05-06 18:46 50.04248 8.57588 365 ft 29 kts 250°
2026-05-06 18:46 50.04085 8.56904 362 ft 102 kts 249°
2026-05-06 18:47 50.03767 8.55575 355 ft 157 kts 251°
2026-05-06 18:47 50.03379 8.53961 1028 ft 158 kts 252°
2026-05-06 18:47 50.02995 8.52363 1789 ft 161 kts 252°
2026-05-06 18:47 50.02558 8.50644 2225 ft 183 kts 244°
2026-05-06 18:48 50.01695 8.49030 2677 ft 205 kts 219°
2026-05-06 18:48 50.00397 8.48074 3374 ft 210 kts 195°
2026-05-06 18:48 49.98954 8.47725 4138 ft 210 kts 191°
2026-05-06 18:48 49.97515 8.47406 4888 ft 208 kts 191°
2026-05-06 18:49 49.96082 8.47062 5591 ft 208 kts 197°
2026-05-06 18:49 49.94645 8.46413 6020 ft 227 kts 199°
2026-05-06 18:49 49.93080 8.45678 6635 ft 240 kts 201°
2026-05-06 18:49 49.91648 8.44358 7455 ft 242 kts 227°
2026-05-06 18:50 49.90780 8.42130 8335 ft 246 kts 253°
2026-05-06 18:50 49.90691 8.39480 9233 ft 252 kts 280°
2026-05-06 18:50 49.91450 8.37009 10081 ft 261 kts 309°
2026-05-06 18:50 49.92943 8.35355 10854 ft 271 kts 333°
2026-05-06 18:51 49.94744 8.34162 11294 ft 293 kts 335°
2026-05-06 18:51 49.96706 8.32900 11583 ft 317 kts 335°
2026-05-06 18:51 49.98806 8.31560 11849 ft 331 kts 335°
2026-05-06 18:51 50.00958 8.30183 12197 ft 338 kts 336°
2026-05-06 18:52 50.03223 8.29133 13007 ft 344 kts 348°
2026-05-06 18:52 50.05628 8.28870 13778 ft 350 kts
2026-05-06 18:52 50.08050 8.29466 14480 ft 355 kts 15°
2026-05-06 18:52 50.10406 8.30674 15192 ft 358 kts 18°
2026-05-06 18:53 50.12777 8.31920 15900 ft 362 kts 18°
2026-05-06 18:53 50.15175 8.33179 16592 ft 366 kts 17°
2026-05-06 18:53 50.17599 8.34453 17266 ft 369 kts 17°
2026-05-06 18:53 50.20047 8.35739 17962 ft 373 kts 17°
2026-05-06 18:54 50.22518 8.37039 18597 ft 376 kts 17°
2026-05-06 18:54 50.25012 8.38350 18811 ft 378 kts 17°
2026-05-06 18:54 50.27500 8.39664 18835 ft 377 kts 17°
2026-05-06 18:54 50.29986 8.40978 18832 ft 377 kts 17°
2026-05-06 18:55 50.32467 8.42305 18837 ft 377 kts 18°
2026-05-06 18:55 50.34945 8.43649 18832 ft 377 kts 18°
2026-05-06 18:55 50.37429 8.45013 18832 ft 379 kts 18°
2026-05-06 18:55 50.39931 8.46373 19107 ft 382 kts 14°
2026-05-06 18:56 50.42548 8.46991 19724 ft 381 kts 357°
2026-05-06 18:56 50.45173 8.46477 20331 ft 381 kts 347°
2026-05-06 18:56 50.47794 8.45749 20947 ft 384 kts 347°
2026-05-06 18:56 50.50435 8.45010 21532 ft 387 kts 347°
2026-05-06 18:57 50.53097 8.44263 22101 ft 390 kts 347°
2026-05-06 18:57 50.55781 8.43514 22657 ft 393 kts 347°
2026-05-06 18:57 50.58488 8.42758 23099 ft 397 kts 347°
2026-05-06 18:57 50.61221 8.41992 23372 ft 400 kts 347°
2026-05-06 18:58 50.63970 8.41223 23631 ft 403 kts 347°
2026-05-06 18:58 50.66733 8.40451 23792 ft 404 kts 348°
2026-05-06 18:58 50.69498 8.39682 23835 ft 403 kts 348°
2026-05-06 18:58 50.72262 8.38913 23834 ft 403 kts 348°
2026-05-06 18:59 50.75024 8.38142 23833 ft 403 kts 347°
2026-05-06 18:59 50.77785 8.37372 23838 ft 403 kts 347°
2026-05-06 18:59 50.80547 8.36598 23838 ft 403 kts 347°
2026-05-06 18:59 50.83310 8.35824 23836 ft 403 kts 347°
2026-05-06 19:00 50.86073 8.35048 23838 ft 403 kts 347°
2026-05-06 19:00 50.88836 8.34273 23839 ft 403 kts 347°
2026-05-06 19:00 50.91599 8.33494 23839 ft 403 kts 347°
2026-05-06 19:00 50.94361 8.32710 23840 ft 403 kts 347°
2026-05-06 19:01 50.97121 8.31927 23852 ft 403 kts 347°
2026-05-06 19:01 50.99878 8.31102 23852 ft 402 kts 343°
2026-05-06 19:01 51.02520 8.29707 23851 ft 399 kts 334°
2026-05-06 19:01 51.04946 8.27612 23860 ft 395 kts 322°
2026-05-06 19:02 51.06946 8.24656 23861 ft 391 kts 307°
2026-05-06 19:02 51.08639 8.21354 23860 ft 390 kts 307°
2026-05-06 19:02 51.10337 8.17984 23859 ft 390 kts 306°
2026-05-06 19:02 51.12024 8.14599 23858 ft 390 kts 306°
2026-05-06 19:03 51.13704 8.11206 23858 ft 390 kts 306°
2026-05-06 19:03 51.15404 8.07760 23565 ft 391 kts 306°
2026-05-06 19:03 51.17079 8.04362 23037 ft 389 kts 307°
2026-05-06 19:03 51.18749 8.00989 22490 ft 386 kts 307°
2026-05-06 19:04 51.20406 7.97648 21951 ft 383 kts 307°
2026-05-06 19:04 51.22045 7.94333 21536 ft 378 kts 307°
2026-05-06 19:04 51.23673 7.91039 21285 ft 377 kts 307°
2026-05-06 19:04 51.25290 7.87762 21017 ft 375 kts 307°
2026-05-06 19:05 51.26898 7.84498 20847 ft 373 kts 307°
2026-05-06 19:05 51.28499 7.81240 20876 ft 373 kts 307°
2026-05-06 19:05 51.30022 7.77900 20776 ft 369 kts 298°
2026-05-06 19:05 51.30943 7.74117 20292 ft 364 kts 281°
2026-05-06 19:06 51.31065 7.70173 19804 ft 360 kts 263°
2026-05-06 19:06 51.30550 7.66213 19293 ft 359 kts 257°
2026-05-06 19:06 51.29976 7.62344 18808 ft 357 kts 257°
2026-05-06 19:06 51.29407 7.58495 18346 ft 355 kts 257°
2026-05-06 19:07 51.28848 7.54674 17857 ft 352 kts 257°
2026-05-06 19:07 51.28291 7.50872 17346 ft 350 kts 257°
2026-05-06 19:07 51.27733 7.47094 16843 ft 349 kts 257°
2026-05-06 19:07 51.27175 7.43337 16360 ft 347 kts 257°
2026-05-06 19:08 51.26620 7.39600 15877 ft 345 kts 258°
2026-05-06 19:08 51.26069 7.35884 15398 ft 343 kts 258°
2026-05-06 19:08 51.25520 7.32182 14938 ft 342 kts 258°
2026-05-06 19:08 51.24972 7.28495 14472 ft 341 kts 258°
2026-05-06 19:09 51.24423 7.24822 14023 ft 340 kts 258°
2026-05-06 19:09 51.23880 7.21212 13578 ft 338 kts 258°
2026-05-06 19:09 51.23332 7.17569 13067 ft 337 kts 258°
2026-05-06 19:09 51.22785 7.13943 12580 ft 335 kts 259°
2026-05-06 19:10 51.22239 7.10332 12100 ft 334 kts 259°
2026-05-06 19:10 51.21692 7.06732 11822 ft 334 kts 259°
2026-05-06 19:10 51.21146 7.03132 11574 ft 334 kts 259°
2026-05-06 19:10 51.20601 6.99538 11322 ft 333 kts 259°
2026-05-06 19:11 51.20058 6.95966 10979 ft 330 kts 259°
2026-05-06 19:11 51.19518 6.92429 10519 ft 328 kts 259°
2026-05-06 19:11 51.18979 6.88908 10166 ft 323 kts 259°
2026-05-06 19:11 51.18455 6.85496 10047 ft 311 kts 259°
2026-05-06 19:12 51.17952 6.82250 9755 ft 295 kts 259°
2026-05-06 19:12 51.17464 6.79107 9143 ft 289 kts 259°
2026-05-06 19:12 51.16983 6.76013 8492 ft 286 kts 258°
2026-05-06 19:12 51.16145 6.73150 7895 ft 288 kts 237°
2026-05-06 19:13 51.14934 6.70623 7390 ft 287 kts 233°
2026-05-06 19:13 51.13690 6.68154 6910 ft 284 kts 233°
2026-05-06 19:13 51.12458 6.65723 6460 ft 280 kts 233°
2026-05-06 19:13 51.11242 6.63329 5953 ft 277 kts 233°
2026-05-06 19:14 51.10037 6.60956 5451 ft 275 kts 233°
2026-05-06 19:14 51.08842 6.58594 5062 ft 273 kts 233°
2026-05-06 19:14 51.07855 6.56059 4823 ft 268 kts 254°
2026-05-06 19:14 51.07693 6.53179 4566 ft 260 kts 282°
2026-05-06 19:15 51.08412 6.50616 4296 ft 254 kts 312°
2026-05-06 19:15 51.09707 6.48730 4072 ft 252 kts 326°
2026-05-06 19:15 51.11314 6.47719 3890 ft 250 kts 352°
2026-05-06 19:15 51.13048 6.47749 3698 ft 250 kts 10°
2026-05-06 19:16 51.14685 6.48672 3523 ft 251 kts 28°
2026-05-06 19:16 51.16050 6.50399 3339 ft 252 kts 47°
2026-05-06 19:16 51.17124 6.52587 3168 ft 246 kts 51°
2026-05-06 19:16 51.18135 6.54694 3042 ft 233 kts 51°
2026-05-06 19:17 51.19090 6.56682 2988 ft 218 kts 51°
2026-05-06 19:17 51.19993 6.58560 2803 ft 208 kts 51°
2026-05-06 19:17 51.20853 6.60350 2554 ft 199 kts 51°
2026-05-06 19:17 51.21673 6.62060 2289 ft 189 kts 51°
2026-05-06 19:18 51.22430 6.63640 2067 ft 170 kts 50°
2026-05-06 19:18 51.23126 6.65090 1813 ft 160 kts 50°
2026-05-06 19:18 51.23778 6.66453 1625 ft 147 kts 50°
2026-05-06 19:18 51.24366 6.67682 1422 ft 134 kts 50°
2026-05-06 19:19 51.24928 6.68853 1240 ft 132 kts 49°
2026-05-06 19:19 51.25482 6.70011 1054 ft 132 kts 49°
2026-05-06 19:19 51.26036 6.71170 856 ft 131 kts 49°
2026-05-06 19:19 51.26589 6.72326 678 ft 130 kts 49°
2026-05-06 19:20 51.27141 6.73479 485 ft 131 kts 50°
2026-05-06 19:20 51.27690 6.74628 311 ft 130 kts 51°
2026-05-06 19:20 51.28234 6.75770 148 ft 129 kts 50°
2026-05-06 19:20 51.28699 6.76749 124 ft 81 kts 52°
2026-05-06 19:21 51.28952 6.77281 126 ft 37 kts 53°
2026-05-06 19:21 51.29026 6.77482 128 ft 16 kts 85°
2026-05-06 19:21 51.28980 6.77604 127 ft 10 kts 146°
2026-05-06 19:21 51.28937 6.77649 127 ft 5 kts 150°
2026-05-06 19:22 51.28902 6.77638 129 ft 9 kts 213°
2026-05-06 19:22 51.28850 6.77532 125 ft 13 kts 232°
2026-05-06 19:22 51.28799 6.77426 127 ft 13 kts 232°
2026-05-06 19:22 51.28732 6.77285 126 ft 18 kts 233°
2026-05-06 19:23 51.28647 6.77107 126 ft 21 kts 233°
2026-05-06 19:23 51.28554 6.76911 126 ft 22 kts 233°
2026-05-06 19:23 51.28489 6.76782 126 ft 10 kts 216°
2026-05-06 19:23 51.28422 6.76806 125 ft 13 kts 144°
2026-05-06 19:24 51.28358 6.76869 126 ft 9 kts 169°
2026-05-06 19:24 51.28293 6.76860 129 ft 10 kts 187°
2026-05-06 19:24 51.28217 6.76845 129 ft 11 kts 187°
2026-05-06 19:24 51.28159 6.76832 129 ft 6 kts 199°
2026-05-06 19:25 51.28151 6.76791 128 ft 4 kts 270°
2026-05-06 19:25 51.28154 6.76747 127 ft 3 kts 276°
2026-05-06 19:25 51.28155 6.76737 128 ft 0 kts 276°